Voltar ao catálogo

STARLINK-32643

AtivoComunicaçõesVLEO
NORAD 62233·PAYLOAD·🇺🇸 United States

Lançado Dec 5, 2024 de Vandenberg Space Force Base

Loading…

Próximas Passagens (próximas 24 horas)

TLE

AtualizadoSource: CelesTrak SupGP

Época: Sep 14, 2026, 20:44 UTC

1 62233C 24231R   26257.86437500  .00040292  00000+0  12961-2 0  2577
2 62233  53.1596  46.6487 0001298  82.5597 256.3054 15.31671810    17

Acompanhe STARLINK-32643 em tempo real com AllMySat

Download on the App Store